Location: Cambridge (historical)
(38.6883°N, 119.0140°W)
Time: 13:43:09
(UTC+00:00)

Meteor 2-10 Rocket - Pass Details

Date: 29 October 2020
Orbit: 734 x 885 km, 81.2° (Epoch: 01 December)

Event Time Altitude Azimuth Distance (km) Brightness Sun altitude
Rises 13:10:43 0° 353° (N) 3,172 6.6 -14.1°
Reaches altitude 10° 13:13:03 10° 355° (N) 2,251 5.8 -13.7°
Maximum altitude 13:18:04 72° 80° (E) 787 3.7 -12.7°
Drops below altitude 10° 13:23:12 10° 165° (SSE) 2,293 6.3 -11.7°
Sets 13:25:35 0° 167° (SSE) 3,236 7.0 -11.3°
